Home > Weather > McAllen > Past weeks

Flag for USA Past Weather in McAllen, Texas, USA — Yesterday and Last 2 Weeks

Now
92 °F

Partly sunny.


Feels Like: 103 °F
Forecast: 80 / 96 °F
Wind: 17 mph from Southeast

Location: Miller International Airport

Current Time: May 28, 2016 at 5:10:49 PM

Latest Report: May 28, 2016 at 3:53 PM


Visibility: 10 mi

Pressure: 29.85 "Hg

Humidity: 58%

Dew Point: 75 °F

Location of McAllenLocation

Past Weather in McAllen — Graph

°F

McAllen Temperature Yesterday

Maximum temperature yesterday: 97 °F (at 2:53 PM)
Minimum temperature yesterday: 80 °F (at 11:53 PM)
Average temperature yesterday: 87 °F

High & Low Weather Summary for the Past Weeks

 TemperatureHumidityPressure
High97 °F (May 27, 2:53 PM)94% (May 15, 4:53 AM)30.06 "Hg (May 15, 4:53 AM)
Low72 °F (May 16, 6:53 AM)44% (May 13, 2:53 PM)29.60 "Hg (May 27, 5:53 PM)
Average84 °F75%29.87 "Hg
* Reported May 13 2:53 PM — May 28 2:53 PM, McAllen, Weather by CustomWeather, © 2016

Note: Actual official high and low records may vary slightly from our data, if they occured in-between our weather recording intervals... More about our weather records

Advertising

McAllen Weather History for the Previous 24 Hours

Scroll right to see more
 ConditionsComfort  
Time TempWeatherWind HumidityBarometerVisibility
2:53 PM
Sat, May 28
91 °FPartly sunny.18 mph57%29.86 "Hg10 mi
1:53 PM93 °FBroken clouds.17 mph56%29.87 "Hg10 mi
12:53 PM92 °FBroken clouds.18 mph58%29.87 "Hg10 mi
11:53 AM90 °FMostly cloudy.18 mph63%29.88 "Hg8 mi
10:53 AM89 °FBroken clouds.23 mph65%29.88 "Hg7 mi
9:53 AM88 °FMostly cloudy.21 mph67%29.88 "Hg6 mi
8:53 AM85 °FMostly cloudy.20 mph80%29.86 "Hg4 mi
7:53 AM83 °FMostly cloudy.17 mph82%29.84 "Hg3 mi
7:00 AM82 °FOvercast.14 mph85%29.82 "Hg3 mi
5:53 AM81 °FFog.13 mph88%29.79 "Hg5 mi
4:53 AM81 °FFog.13 mph88%29.78 "Hg6 mi
4:00 AM80 °FFog.13 mph87%29.77 "Hg6 mi
2:53 AM81 °FClear.9 mph85%29.75 "Hg8 mi
1:53 AM80 °FClear.8 mph85%29.76 "Hg8 mi
12:53 AM80 °FClear.6 mph85%29.76 "Hg8 mi
11:53 PM
Fri, May 27
80 °FPassing clouds.7 mph85%29.76 "Hg9 mi
10:53 PM83 °FClear.9 mph77%29.76 "Hg10 mi
9:53 PM83 °FClear.9 mph74%29.73 "Hg10 mi
8:53 PM84 °FSunny.12 mph77%29.70 "Hg10 mi
7:53 PM87 °FBroken clouds.16 mph72%29.68 "Hg8 mi
6:53 PM90 °FScattered clouds.16 mph68%29.66 "Hg8 mi
5:53 PM91 °FSunny.15 mph68%29.60 "Hg8 mi
Weather by CustomWeather, © 2016

See weather overviewHow to use our weather pages